This demonstration page uses our WeatherBlox Daily Observations layout. Learn more.

Hourly Observations for December 17, 2019

Temp ( °F °C ) Dew Point ( °F °C ) Humidity (%) Winds ( mph kmh ) Pressure ( in mb ) Visibility ( mi km ) Precip ( " mm )
12:03 am 00:03 Mostly Cloudy with Freezing Fog 14 -10 11 -11.7 88 88 Calm 30.39 1029 0.25 0.402335 0 0
12:54 am 00:54 Mostly Cloudy with Freezing Fog 11 -11.7 8 -13.3 88 88 S 5 7 30.32 1027 0.25 0.402335 0 0
1:06 am 01:06 Partly Cloudy with Mist and Fog 11 -11.7 7 -13.9 84 84 SSW 5 7 30.38 1029 1.25 2.011675 0 0
1:09 am 01:09 Partly Cloudy with Mist and Fog 11 -11.7 7 -13.9 84 84 S 3 6 30.38 1029 4 6.43736 0 0
1:54 am 01:54 Mostly Cloudy with Mist and Fog 11 -11.7 7 -13.9 84 84 S 3 6 30.32 1027 6 9.65604 0 0
2:04 am 02:04 Partly Cloudy with Mist and Fog 10 -12.2 6 -14.4 84 84 S 5 7 30.38 1029 6 9.65604 0 0
2:54 am 02:54 Hazy 11 -11.7 6 -14.4 81 81 Calm 30.34 1027 6 9.65604 0 0
3:54 am 03:54 Clear 10 -12.2 7 -13.9 87 87 SSE 5 7 30.33 1027 7 11.26538 0 0
4:54 am 04:54 Clear 11 -11.7 6 -14.4 81 81 Calm 30.32 1027 8 12.87472 0 0
5:54 am 05:54 Clear 11 -11.7 6 -14.4 81 81 Calm 30.33 1027 9 14.48406 0 0
6:54 am 06:54 Clear 10 -12.2 5 -15 80 80 W 3 6 30.34 1027 9 14.48406 0 0
7:54 am 07:54 Sunny 17 -8.3 13 -10.6 84 84 W 6 9 30.33 1027 10 16.0934 0 0
8:54 am 08:54 Sunny 20 -6.7 16 -8.9 85 85 W 7 11 30.35 1028 10 16.0934 0 0
9:54 am 09:54 Sunny 24 -4.4 19 -7.2 81 81 W 6 9 30.35 1028 10 16.0934 0 0
10:54 am 10:54 Sunny 30 -1.1 20 -6.7 66 66 WSW 5 7 30.34 1027 10 16.0934 0 0
11:54 am 11:54 Sunny 32 0 20 -6.7 61 61 W 10 17 30.31 1026 10 16.0934 0 0
12:54 pm 12:54 Sunny 34 1.1 22 -5.6 61 61 WSW 8 13 30.28 1026 10 16.0934 0 0
1:54 pm 13:54 Sunny 36 2.2 23 -5 59 59 WSW 10 17 30.26 1025 10 16.0934 0 0
2:54 pm 14:54 Sunny 35 1.7 22 -5.6 59 59 WSW 12 19 30.26 1025 10 16.0934 0 0
3:54 pm 15:54 Sunny 34 1.1 22 -5.6 61 61 WSW 12 19 30.27 1025 10 16.0934 0 0
4:54 pm 16:54 Sunny 32 0 21 -6.1 64 64 WSW 6 9 30.27 1025 10 16.0934 0 0
5:54 pm 17:54 Clear 28 -2.2 21 -6.1 75 75 WSW 7 11 30.29 1026 10 16.0934 0 0
6:54 pm 18:54 Clear 28 -2.2 20 -6.7 72 72 W 5 7 30.3 1026 10 16.0934 0 0
7:54 pm 19:54 Clear 24 -4.4 18 -7.8 77 77 Calm 30.3 1026 10 16.0934 0 0
8:54 pm 20:54 Clear 22 -5.6 18 -7.8 85 85 Calm 30.32 1027 10 16.0934 0 0
9:54 pm 21:54 Clear 21 -6.1 16 -8.9 81 81 Calm 30.32 1027 10 16.0934 0 0
10:54 pm 22:54 Clear 19 -7.2 16 -8.9 88 88 Calm 30.32 1027 10 16.0934 0 0
11:54 pm 23:54 Clear 16 -8.9 14 -10 92 92 Calm 30.33 1027 10 16.0934 0 0

Powered by AerisWeather